User: anonymous   Login
Location: Arrodets-la-Barthe
(43.0306°N, 0.2829°E)
Time: 18:50:32
(UTC+00:00)
Language:

Cosmos 371 Rocket - Orbit

View from above orbital plane
View from above orbital plane
View from above satellite
View from above satellite

Ground track
Ground track

The orbit data is extracted from the following two-line orbital elements,

1 04579U 70083B   22022.54585230  .00000177  00000-0  42629-4 0  9995
2 04579  74.0027 116.5452 0009200  74.4484 285.7697 14.60579244720019
Epoch (UTC): 22 January 2022 13:06:01
Eccentricity: 0.0009200
inclination: 74.0027°
perigee height: 685 km
apogee height: 698 km
right ascension of ascending node: 116.5452°
argument of perigee: 74.4484°
revolutions per day: 14.60579244
mean anomaly at epoch: 285.7697°
orbit number at epoch: 72001

The dashed part of the orbit path shows where the satellite is in the earth's shadow,  

DLR